Regional Weather Roundup
Issued by NWS Midland/Odessa, TX

Home | Current Version | Previous Version | Text Only | Print | Product List | Glossary On
Versions: 1 2 3 4 5 6 7 8 9 10 11 12 13 14 15 16 17 18 19 20 21 22 23 24 25 26 27 28 29 30 31 32 33 34 35 36 37 38 39 40 41 42 43 44 45 46 47 48 49 50
074
ASUS44 KMAF 201801
RWRMAF
MIDLAND AREA WEATHER ROUNDUP
NATIONAL WEATHER SERVICE MIDLAND TX
1200 PM CST MON NOV 20 2017

...IN SOUTHWEST TEXAS AND SOUTHEAST NEW MEXICO...

CITY           SKY/WX    TMP DP  RH WIND       PRES   REMARKS
ALPINE         CLOUDY    67  28  23 W15G21    30.15F
ANDREWS        FAIR      63  26  24 SW12      30.04F
ARTESIA        CLOUDY    54  21  28 SE7       30.03F
BIG SPRING       N/A     60  29  31 S16       30.07F
CARLSBAD       SUNNY     56  28  34 SE8       30.03F
DRYDEN           N/A     61  27  27 S10       30.09F
FORT STOCKTON  SUNNY     65  31  28 NW6       30.07F
GUAD PASS      SUNNY     52  19  27 SW22G30   30.13F
HOBBS          SUNNY     61  18  18 SW8       30.04F
LAMESA         FAIR      59  28  31 SW15      30.03F
MARFA          CLOUDY    63  28  26 W14G21    30.15F
MIDLAND AIRPK  SUNNY     62  28  27 SW13G18   30.06F
MIDLAND INTL   SUNNY     62  27  26 SW16      30.04F
ODESSA         SUNNY     60  26  27 SW15      30.05F
PECOS          CLOUDY    62  29  29 SE5       30.05F
PRESIDIO       FAIR      58  27  29 CALM      30.16F
SEMINOLE       SUNNY     62  24  23 SW10      30.04F
SNYDER         SUNNY     57  29  34 S15G22    30.03F
WINK           CLOUDY    60  24  25 SW8       30.04F
$$
...OTHER STATIONS IN TEXAS...

CITY           SKY/WX    TMP DP  RH WIND       PRES   REMARKS
ABILENE        SUNNY     58  30  34 S23G31    30.06F
AMARILLO       CLOUDY    58  18  21 W5        29.92F
AUSTIN         MOSUNNY   63  33  32 S10       30.16F
BROWNSVILLE    CLOUDY    62  59  90 N7        30.13S
CORPUS CHRISTI CLOUDY    67  49  52 NE9       30.16F
DALLAS FTW     MOSUNNY   63  30  28 S18       30.10F
DEL RIO        SUNNY     63  34  33 S14G22    30.13F
EL PASO        MOSUNNY   56  17  21 CALM      30.15F
HOUSTON INT    PTSUNNY   63  38  39 SE9       30.21F
LUBBOCK        CLOUDY    61  19  19 SW20      29.97F
SAN ANGELO     SUNNY     63  28  26 SW16G23   30.09F
SAN ANTONIO    MOSUNNY   64  31  28 S7        30.17F
WACO           SUNNY     62  32  32 S18       30.16F
WICHITA FALLS  MOSUNNY   59  26  28 S31G37    29.86F
$$
...OTHER LOCATIONS IN NEW MEXICO...

CITY           SKY/WX    TMP DP  RH WIND       PRES   REMARKS
ALAMOGORDO     CLOUDY    54  14  20 CALM      30.17F
ALBUQUERQUE    CLOUDY    48   6  18 SW3       30.18F
CANNON AFB     CLOUDY    58   6  12 W17       29.97F
CLOVIS         CLOUDY    58   9  14 W20       29.97F
HOLLOMAN AFB   SUNNY     59  18  20 CALM      30.18F
ROSWELL        CLOUDY    54  21  27 S8        30.02F
RUIDOSO        CLOUDY    55  -2   9 NW14G22   30.17F
SANTA FE       CLOUDY    46   8  21 SW10      30.15S
TRUTH OR CONSE SUNNY     51  10  19 VRB5      30.16F
TUCUMCARI      CLOUDY    62   7  11 SW10      29.92F
$$




USA.gov is the U.S. government's official web portal to all federal, state and local government web resources and services.